Windom, MN

4:47 AM CDT on May 28, 2017 (GMT -0500)
Windom Municipal

Weather History for KMWM - January, 2012

Change the Weather History Date:

Sunday, January 8, 2012

  Actual Average Record
Temperature  
Mean Temperature 28 °F -  
Max Temperature 42 °F 20 °F 57 °F (2003)
Min Temperature 15 °F 0 °F -18 °F (1970)
Degree Days  
Heating Degree Days 36    
Moisture  
Dew Point 22 °F    
Average Humidity 82    
Maximum Humidity 100    
Minimum Humidity 53    
Precipitation  
Precipitation 0.00 in - - ()
Sea Level Pressure  
Sea Level Pressure 30.21 in    
Wind  
Wind Speed 4 mph (SW)    
Max Wind Speed 12 mph    
Max Gust Speed -    
Visibility 10 miles    
Events      
Averages and records for this station are not official NWS values.
T = Trace of Precipitation, MM = Missing Value Source: NWS Daily Summary

Daily Weather History Graph

Daily Weather History Graph

Search for Another Location

Airport or City:

Trip Planner

Search our weather history database for the weather conditions in past years. The results will help you decide how hot, cold, wet, or windy it might be!

Date:

Astronomy

Jan. 08, 2012 Rise Set
Actual Time 7:54 AM CST 4:59 PM CST
Civil Twilight 7:21 AM CST 5:32 PM CST
Nautical Twilight 6:45 AM CST 6:08 PM CST
Astronomical Twilight 6:11 AM CST 6:43 PM CST
Moon 4:44 PM CST (1/8) 7:13 AM CST (1/8)
Length of Visible Light 10h 10m
Length of Day
9h 05m
Full, 100% of the Moon is Illuminated
Jan 8
Full
Jan 9
Full
Jan 16
Last Quarter
Jan 23
New
Jan 30
First Quarter

Hourly Weather History & Observations

Time (CST) Temp. Windchill Dew Point Humidity Pressure Visibility Wind Dir Wind Speed Gust Speed Precip Events Conditions
12:13 AM 23.0 °F 17.0 °F 21.2 °F 93% 30.20 in 10.0 mi WSW 4.6 mph - N/A   Clear
12:33 AM 23.0 °F 18.4 °F 19.4 °F 86% 30.20 in 10.0 mi WSW 3.5 mph - N/A   Clear
12:52 AM 21.2 °F 16.4 °F 19.4 °F 93% 30.20 in 10.0 mi WSW 3.5 mph - N/A   Clear
1:13 AM 23.0 °F 15.8 °F 19.4 °F 86% 30.20 in 10.0 mi WSW 5.8 mph - N/A   Clear
1:32 AM 21.2 °F - 17.6 °F 86% 30.20 in 10.0 mi Calm Calm - N/A   Clear
1:52 AM 21.2 °F 16.4 °F 19.4 °F 93% 30.20 in 10.0 mi SSW 3.5 mph - N/A   Clear
2:13 AM 21.2 °F 16.4 °F 19.4 °F 93% 30.20 in 10.0 mi SSW 3.5 mph - N/A   Clear
2:33 AM 21.2 °F 14.9 °F 19.4 °F 93% 30.20 in 10.0 mi SW 4.6 mph - N/A   Clear
2:52 AM 21.2 °F 16.4 °F 19.4 °F 93% 30.20 in 10.0 mi WSW 3.5 mph - N/A   Clear
3:13 AM 19.4 °F - 17.6 °F 93% 30.20 in 10.0 mi Calm Calm - N/A   Clear
3:32 AM 17.6 °F - 15.8 °F 93% 30.20 in 10.0 mi Calm Calm - N/A   Clear
3:52 AM 19.4 °F - 17.6 °F 93% 30.20 in 10.0 mi Calm Calm - N/A   Clear
4:13 AM 17.6 °F - 17.6 °F 100% 30.21 in 10.0 mi Calm Calm - N/A   Clear
4:32 AM 17.6 °F - 17.6 °F 100% 30.20 in 10.0 mi Calm Calm - N/A   Clear
4:53 AM 17.6 °F 12.3 °F 15.8 °F 93% 30.21 in 10.0 mi SSW 3.5 mph - N/A   Clear
5:13 AM 17.6 °F - 17.6 °F 100% 30.21 in 10.0 mi Calm Calm - N/A   Clear
5:32 AM 17.6 °F - 15.8 °F 93% 30.21 in 10.0 mi Calm Calm - N/A   Clear
5:53 AM 17.6 °F - 15.8 °F 93% 30.22 in 10.0 mi Calm Calm - N/A   Clear
6:13 AM 17.6 °F - 15.8 °F 93% 30.22 in 10.0 mi Calm Calm - N/A   Clear
6:32 AM 17.6 °F - 15.8 °F 93% 30.22 in 10.0 mi Calm Calm - N/A   Clear
6:53 AM 17.6 °F - 15.8 °F 93% 30.22 in 10.0 mi Calm Calm - N/A   Clear
7:13 AM 15.8 °F - 14.0 °F 93% 30.22 in 10.0 mi Calm Calm - N/A   Clear
7:32 AM 15.8 °F 10.2 °F 14.0 °F 93% 30.23 in 10.0 mi South 3.5 mph - N/A   Clear
7:52 AM 15.8 °F 10.2 °F 15.8 °F 100% 30.23 in 10.0 mi South 3.5 mph - N/A   Clear
8:13 AM 17.6 °F 12.3 °F 15.8 °F 93% 30.23 in 10.0 mi SSW 3.5 mph - N/A   Clear
8:32 AM 17.6 °F - 15.8 °F 93% 30.23 in 10.0 mi Calm Calm - N/A   Clear
8:53 AM 19.4 °F - 17.6 °F 93% 30.24 in 10.0 mi Calm Calm - N/A   Clear
9:12 AM 21.2 °F 16.4 °F 19.4 °F 93% 30.24 in 10.0 mi South 3.5 mph - N/A   Clear
9:33 AM 23.0 °F - 21.2 °F 93% 30.25 in 10.0 mi Calm Calm - N/A   Clear
9:53 AM 26.6 °F 22.6 °F 23.0 °F 86% 30.26 in 10.0 mi SSW 3.5 mph - N/A   Clear
10:12 AM 28.4 °F - 24.8 °F 86% 30.26 in 10.0 mi Calm Calm - N/A   Clear
10:33 AM 30.2 °F 25.4 °F 24.8 °F 80% 30.25 in 10.0 mi SSW 4.6 mph - N/A   Clear
10:52 AM 30.2 °F 25.4 °F 24.8 °F 80% 30.25 in 10.0 mi South 4.6 mph - N/A   Clear
11:12 AM 33.8 °F 27.0 °F 24.8 °F 70% 30.24 in 10.0 mi SSW 8.1 mph - N/A   Clear
11:33 AM 33.8 °F 27.7 °F 26.6 °F 75% 30.23 in 10.0 mi SW 6.9 mph - N/A   Clear
11:52 AM 35.6 °F 29.9 °F 26.6 °F 70% 30.22 in 10.0 mi SW 6.9 mph - N/A   Clear
12:12 PM 37.4 °F 30.3 °F 26.6 °F 65% 30.21 in 10.0 mi SSW 10.4 mph - N/A   Clear
12:31 PM 37.4 °F 30.3 °F 26.6 °F 65% 30.21 in 10.0 mi SW 10.4 mph - N/A   Clear
12:52 PM 39.2 °F 32.5 °F 26.6 °F 61% 30.19 in 10.0 mi SW 10.4 mph - N/A   Clear
1:12 PM 39.2 °F 32.5 °F 26.6 °F 61% 30.20 in 10.0 mi SSW 10.4 mph - N/A   Clear
1:33 PM 41.0 °F 34.7 °F 26.6 °F 57% 30.19 in 10.0 mi SW 10.4 mph - N/A   Clear
1:52 PM 42.8 °F 37.0 °F 26.6 °F 53% 30.19 in - WSW 10.4 mph - N/A   Clear
2:12 PM 42.8 °F 36.6 °F 28.4 °F 57% 30.20 in 10.0 mi WSW 11.5 mph - N/A   Clear
2:33 PM 42.8 °F 36.6 °F 28.4 °F 57% 30.20 in 10.0 mi WSW 11.5 mph - N/A   Clear
2:52 PM 41.0 °F 34.7 °F 26.6 °F 57% 30.19 in 10.0 mi WSW 10.4 mph - N/A   Clear
3:12 PM 41.0 °F 34.3 °F 26.6 °F 57% 30.19 in 10.0 mi SW 11.5 mph - N/A   Clear
3:52 PM 39.2 °F 33.0 °F 26.6 °F 61% 30.17 in 10.0 mi SW 9.2 mph - N/A   Clear
4:12 PM 39.2 °F 33.6 °F 28.4 °F 65% 30.18 in 10.0 mi SSW 8.1 mph - N/A   Clear
4:33 PM 37.4 °F 31.4 °F 28.4 °F 70% 30.17 in 10.0 mi SSW 8.1 mph - N/A   Clear
4:52 PM 35.6 °F 29.2 °F 28.4 °F 75% 30.17 in 10.0 mi SSW 8.1 mph - N/A   Clear
5:12 PM 35.6 °F 29.9 °F 28.4 °F 75% 30.17 in 10.0 mi SSW 6.9 mph - N/A   Clear
5:33 PM 33.8 °F 27.7 °F 28.4 °F 81% 30.17 in 10.0 mi South 6.9 mph - N/A   Clear
5:52 PM 32.0 °F 25.6 °F 28.4 °F 87% 30.16 in 10.0 mi South 6.9 mph - N/A   Clear
6:12 PM 33.8 °F 27.7 °F 28.4 °F 81% 30.16 in 10.0 mi SSW 6.9 mph - N/A   Clear
6:33 PM 33.8 °F 25.8 °F 28.4 °F 81% 30.15 in 10.0 mi South 10.4 mph - N/A   Clear
6:52 PM 33.8 °F 26.4 °F 28.4 °F 81% 30.16 in 10.0 mi South 9.2 mph - N/A   Clear
7:12 PM 33.8 °F 25.8 °F 26.6 °F 75% 30.15 in 10.0 mi South 10.4 mph - N/A   Clear
7:33 PM 33.8 °F 26.4 °F 26.6 °F 75% 30.16 in 10.0 mi SSW 9.2 mph - N/A   Clear
7:52 PM 32.0 °F 24.2 °F 26.6 °F 80% 30.16 in 10.0 mi South 9.2 mph - N/A   Clear
8:13 PM 32.0 °F 24.2 °F 26.6 °F 80% 30.15 in 10.0 mi South 9.2 mph - N/A   Clear
8:32 PM 32.0 °F 23.6 °F 26.6 °F 80% 30.14 in 10.0 mi South 10.4 mph - N/A   Clear
8:53 PM 32.0 °F 23.6 °F 26.6 °F 80% 30.13 in 10.0 mi SSW 10.4 mph - N/A   Clear
9:12 PM 32.0 °F 23.0 °F 26.6 °F 80% 30.13 in 10.0 mi SSW 11.5 mph - N/A   Clear
9:33 PM 32.0 °F 22.5 °F 28.4 °F 87% 30.14 in 10.0 mi SSW 12.7 mph - N/A   Clear
9:53 PM 33.8 °F 25.3 °F 28.4 °F 81% 30.13 in 10.0 mi SSW 11.5 mph - N/A   Clear
10:12 PM 33.8 °F 23.5 °F 28.4 °F 81% 30.12 in 10.0 mi SSW 16.1 mph - N/A   Clear
10:32 PM 33.8 °F 23.9 °F 28.4 °F 81% 30.11 in 10.0 mi SSW 15.0 mph - N/A   Clear
10:53 PM 33.8 °F 23.9 °F 28.4 °F 81% 30.10 in 10.0 mi SSW 15.0 mph - N/A   Clear
11:12 PM 33.8 °F 24.3 °F 28.4 °F 81% 30.10 in 10.0 mi SSW 13.8 mph - N/A   Clear
11:32 PM 33.8 °F - 28.4 °F 81% 30.09 in - North - - N/A   Clear
11:53 PM 33.8 °F 23.5 °F 28.4 °F 81% 30.08 in 10.0 mi SSW 16.1 mph 24.2 mph N/A   Clear